TimeEDT,TemperatureF,Dew PointF,Humidity,Sea Level PressureIn,VisibilityMPH,Wind Direction,Wind SpeedMPH,Gust SpeedMPH,PrecipitationIn,Events,Conditions,WindDirDegrees,DateUTC
12:09 AM,57.2,57.2,100,30.04,1.8,Calm,Calm,-,N/A,,Clear,0,2013-10-11 04:09:00
12:19 AM,57.2,57.2,100,30.04,0.8,Calm,Calm,-,N/A,,Clear,0,2013-10-11 04:19:00
12:23 AM,57.2,57.2,100,30.04,2.5,Calm,Calm,-,N/A,,Clear,0,2013-10-11 04:23:00
12:30 AM,57.2,57.2,100,30.04,3.0,Calm,Calm,-,N/A,,Clear,0,2013-10-11 04:30:00
12:47 AM,57.2,57.2,100,30.04,1.5,Calm,Calm,-,N/A,,Clear,0,2013-10-11 04:47:00
12:53 AM,55.9,55.9,100,30.02,1.2,Calm,Calm,-,N/A,,Partly Cloudy,0,2013-10-11 04:53:00
12:58 AM,55.4,55.4,100,30.03,3.0,Calm,Calm,-,N/A,,Partly Cloudy,0,2013-10-11 04:58:00
1:53 AM,55.9,55.9,100,30.01,5.0,Calm,Calm,-,N/A,,Clear,0,2013-10-11 05:53:00
2:34 AM,55.4,55.4,100,30.03,2.5,Calm,Calm,-,N/A,,Partly Cloudy,0,2013-10-11 06:34:00
2:41 AM,53.6,53.6,100,30.03,1.2,Calm,Calm,-,N/A,,Mostly Cloudy,0,2013-10-11 06:41:00
2:46 AM,55.4,53.6,94,30.03,3.0,Calm,Calm,-,N/A,,Mostly Cloudy,0,2013-10-11 06:46:00
2:49 AM,55.4,53.6,94,30.03,1.8,Calm,Calm,-,N/A,,Mostly Cloudy,0,2013-10-11 06:49:00
2:53 AM,55.0,55.0,100,30.01,0.8,Calm,Calm,-,N/A,,Mist,0,2013-10-11 06:53:00
3:04 AM,55.4,55.4,100,30.04,0.2,Calm,Calm,-,N/A,Fog,Fog,0,2013-10-11 07:04:00
3:53 AM,54.0,54.0,100,30.01,0.5,Calm,Calm,-,N/A,Fog,Fog,0,2013-10-11 07:53:00
4:05 AM,53.6,53.6,100,30.03,0.2,Calm,Calm,-,N/A,Fog,Fog,0,2013-10-11 08:05:00
4:40 AM,53.6,53.6,100,30.03,0.5,Calm,Calm,-,N/A,Fog,Fog,0,2013-10-11 08:40:00
4:53 AM,53.1,53.1,100,30.01,0.8,Calm,Calm,-,N/A,,Mist,0,2013-10-11 08:53:00
4:58 AM,53.6,53.6,100,30.03,2.5,Calm,Calm,-,N/A,,Mostly Cloudy,0,2013-10-11 08:58:00
5:04 AM,51.8,51.8,100,30.03,0.8,Calm,Calm,-,N/A,,Mist,0,2013-10-11 09:04:00
5:14 AM,51.8,51.8,100,30.04,0.5,Calm,Calm,-,N/A,Fog,Fog,0,2013-10-11 09:14:00
5:25 AM,51.8,51.8,100,30.04,2.0,Calm,Calm,-,N/A,,Mostly Cloudy,0,2013-10-11 09:25:00
5:33 AM,51.8,51.8,100,30.04,0.8,Calm,Calm,-,N/A,,Mist,0,2013-10-11 09:33:00
5:43 AM,51.8,51.8,100,30.04,1.2,Calm,Calm,-,N/A,,Scattered Clouds,0,2013-10-11 09:43:00
5:48 AM,51.8,51.8,100,30.04,3.0,Calm,Calm,-,N/A,,Partly Cloudy,0,2013-10-11 09:48:00
5:53 AM,52.0,52.0,100,30.02,4.0,Calm,Calm,-,N/A,,Partly Cloudy,0,2013-10-11 09:53:00
6:05 AM,51.8,51.8,100,30.05,1.8,Calm,Calm,-,N/A,,Clear,0,2013-10-11 10:05:00
6:12 AM,51.8,51.8,100,30.05,2.0,Calm,Calm,-,N/A,,Partly Cloudy,0,2013-10-11 10:12:00
6:53 AM,51.1,51.1,100,30.04,1.5,Calm,Calm,-,N/A,,Partly Cloudy,0,2013-10-11 10:53:00
7:13 AM,51.8,51.8,100,30.06,0.8,Calm,Calm,-,N/A,,Mist,0,2013-10-11 11:13:00
7:19 AM,50.0,50.0,100,30.06,1.0,Calm,Calm,-,N/A,,Mist,0,2013-10-11 11:19:00
7:22 AM,50.0,48.2,94,30.07,2.5,Calm,Calm,-,N/A,,Scattered Clouds,0,2013-10-11 11:22:00
7:29 AM,50.0,50.0,100,30.06,5.0,Calm,Calm,-,N/A,,Partly Cloudy,0,2013-10-11 11:29:00
7:39 AM,50.0,50.0,100,30.07,1.2,Calm,Calm,-,N/A,,Scattered Clouds,0,2013-10-11 11:39:00
7:41 AM,50.0,50.0,100,30.07,0.8,Calm,Calm,-,N/A,,Mist,0,2013-10-11 11:41:00
7:53 AM,48.9,48.9,100,30.06,0.2,Calm,Calm,-,N/A,Fog,Fog,0,2013-10-11 11:53:00
8:40 AM,51.8,51.8,100,30.08,1.0,Calm,Calm,-,N/A,,Mist,0,2013-10-11 12:40:00
8:44 AM,51.8,51.8,100,30.08,3.0,Calm,Calm,-,N/A,,Mostly Cloudy,0,2013-10-11 12:44:00
8:53 AM,53.1,53.1,100,30.07,5.0,Calm,Calm,-,N/A,,Scattered Clouds,0,2013-10-11 12:53:00
9:53 AM,57.9,57.0,97,30.08,10.0,Calm,Calm,-,N/A,,Clear,0,2013-10-11 13:53:00
10:53 AM,66.9,57.9,73,30.08,10.0,Calm,Calm,-,N/A,,Clear,0,2013-10-11 14:53:00
11:53 AM,72.0,57.0,59,30.07,10.0,Calm,Calm,-,N/A,,Clear,0,2013-10-11 15:53:00
12:53 PM,75.9,55.9,50,30.05,10.0,Variable,5.8,-,N/A,,Clear,0,2013-10-11 16:53:00
1:53 PM,78.1,55.0,45,30.03,10.0,NNW,9.2,18.4,N/A,,Clear,330,2013-10-11 17:53:00
2:53 PM,79.0,55.0,44,30.00,10.0,North,9.2,-,N/A,,Clear,360,2013-10-11 18:53:00
3:53 PM,80.1,55.0,42,29.99,10.0,NW,10.4,-,N/A,,Clear,320,2013-10-11 19:53:00
4:53 PM,80.1,54.0,40,29.98,10.0,NW,5.8,-,N/A,,Clear,320,2013-10-11 20:53:00
5:53 PM,79.0,55.0,44,29.98,10.0,NW,5.8,-,N/A,,Clear,320,2013-10-11 21:53:00
6:53 PM,72.0,57.0,59,29.98,10.0,WNW,3.5,-,N/A,,Clear,290,2013-10-11 22:53:00
7:53 PM,66.0,59.0,78,29.99,10.0,Calm,Calm,-,N/A,,Clear,0,2013-10-11 23:53:00
8:53 PM,63.0,57.9,84,30.00,10.0,Calm,Calm,-,N/A,,Clear,0,2013-10-12 00:53:00
9:53 PM,60.1,57.0,90,30.01,10.0,Calm,Calm,-,N/A,,Clear,0,2013-10-12 01:53:00
10:53 PM,57.9,57.0,97,30.01,10.0,Calm,Calm,-,N/A,,Clear,0,2013-10-12 02:53:00
11:53 PM,55.9,55.9,100,30.01,8.0,Calm,Calm,-,N/A,,Clear,0,2013-10-12 03:53:00